Lid_Strength_Index
0 0 0 -0 0 0 0 -0 -1 -1 -1 -1 -2 -1 -1 -0 -0 -1 -0 -0 -0 0
0 0 0 -0 -0 -0 -1 -1 -1 -1 -1 -1 -1 -1 -1 -0 -0 -1 -0 -1 -1 0
0 0 -0 -0 -0 -0 -1 -1 -1 -1 -1 -1 -1 -1 -1 -0 -1 -0 -0 -0 -0 -0
0 0 -0 -0 -0 -0 -1 -1 -0 -1 -0 -0 -1 -1 -1 -0 -1 -0 -0 -0 -0 -0
0 0 0 0 -0 -0 -0 -1 -1 -0 -0 -0 -0 -1 -0 0 -0 0 0 0 -0 0
1 0 0 0 -0 -0 -0 -0 -0 -0 -0 -0 -0 -0 -0 -0 -0 -0 -0 -0 0 0
1 1 0 0 -0 -0 -0 -0 -0 -0 -0 -0 -0 -0 -0 -0 -0 -0 -0 -0 -0 -0
1 0 0 0 0 -0 -0 0 -0 -0 -0 -0 -0 0 -0 -0 -0 0 -0 -0 -0 -0
1 1 1 0 0 0 0 0 0 0 0 0 0 3 4 1 0 0 0 0 -0 -0
1 1 1 0 1 1 1 0 1 0 0 0 0 4 4 4 -0 0 0 0 0 0
1 1 1 1 1 1 1 1 1 1 0 0 0 5 6 5 -0 -0 -0 -0 -0 0
2 1 2 2 2 1 1 1 1 1 0 1 0 7 7 4 0 0 0 0 -0 0
1 2 2 2 1 1 1 1 1 1 0 2 0 8 9 5 1 1 1 0 -0 5
1 1 1 1 1 1 1 1 1 1 1 0 1 4 9 8 0 1 2 1 1 0